Weather past 2 weeks in Willemstad, Curaçao

Now
90 °F

Scattered clouds.


Feels Like: 100 °F
Forecast: 83 / 90 °F
Wind: 18 mph from Southeast

Location: Hato Airport - Curacao

Current Time: Oct 2, 2014 at 1:10:58 PM

Latest Report: Oct 2, 2014 at 12:00 PM


Visibility: N/A

Pressure: 29.92 "Hg

Humidity: 63%

Dew point: 75 °F

Location of WillemstadLocation

Historic Weather in Willemstad — Graph

°F

Willemstad temperature yesterday

Maximum temperature yesterday: 90 °F (at 2:00 PM)
Minimum temperature yesterday: 82 °F (at 12:00 AM)
Average temperature yesterday: 85 °F

Past Weeks' High & Low Weather Summary

 TemperatureHumidityPressure
High93 °F (Sep 28, 12:00 PM)94% (Sep 23, 9:00 PM)29.98 "Hg (Sep 23, 9:00 PM)
Low75 °F (Sep 23, 9:00 PM)56% (Sep 29, 12:00 PM)29.77 "Hg (Sep 22, 4:00 PM)
Average85 °F77%29.88 "Hg
* Reported Sep 17 11:00 AM — Oct 2 11:00 AM, Willemstad, Weather by CustomWeather, © 2014

Note: Actual official high and low records may vary slightly from our data, if they occured in-between our weather recording intervals... More about our weather records

Advertising

Willemstad weather history for previous 24 hours

 ConditionsComfort  
Time TempWeatherWind HumidityBarometerVisibility
11:00 AM
Oct 2
90 °FScattered clouds.20 mph63%29.98 "HgN/A
10:00 AM88 °FScattered clouds.15 mph70%29.98 "HgN/A
9:00 AM86 °FScattered clouds.14 mph75%29.98 "HgN/A
8:00 AM86 °FPassing clouds.16 mph75%29.95 "HgN/A
7:00 AM82 °FPassing clouds.12 mph84%29.95 "HgN/A
6:00 AM82 °FPassing clouds.12 mph79%29.92 "HgN/A
5:00 AM82 °FPassing clouds.14 mph84%29.89 "HgN/A
4:00 AM82 °FPassing clouds.12 mph84%29.89 "HgN/A
3:00 AM82 °FPassing clouds.13 mph84%29.89 "HgN/A
2:00 AM82 °FPassing clouds.13 mph84%29.92 "HgN/A
1:00 AM82 °FPassing clouds.13 mph84%29.92 "HgN/A
12:00 AM82 °FPassing clouds.13 mph84%29.95 "HgN/A
11:00 PM
Oct 1
82 °FPassing clouds.15 mph84%29.95 "HgN/A
10:00 PM82 °FPassing clouds.15 mph84%29.92 "HgN/A
9:00 PM84 °FPassing clouds.15 mph79%29.92 "HgN/A
8:00 PM84 °FPassing clouds.13 mph79%29.89 "HgN/A
7:00 PM84 °FPassing clouds.14 mph74%29.89 "HgN/A
6:00 PM86 °FPassing clouds.14 mph70%29.86 "HgN/A
5:00 PM88 °FPassing clouds.14 mph70%29.83 "HgN/A
4:00 PM90 °FPassing clouds.17 mph67%29.86 "HgN/A
3:00 PM90 °FScattered clouds.17 mph67%29.86 "HgN/A
2:00 PM90 °FScattered clouds.16 mph67%29.89 "HgN/A
1:00 PM88 °FPartly sunny.15 mph70%29.92 "HgN/A
Weather by CustomWeather, © 2014

See weather overviewHow to use our weather pages